Погода в Починоке

Погода в Починоке : погода сейчас, прогноз погоды и архив. Всё, что Вы хотите узнать о погоде в Починоке!

Поиск расширенной информации на нашем сайте:

Другие новости

Новости СМИ2

Главная страница сайта

Новости сайта

03.07.2017

Напоминаем, что на нашем специализированном сайте Метеоцентр.Азия вы можете получить высокодетализированные автоматические прогнозы погоды по пунктам России, СНГ и мира в авиационном формате (включающие направление и скорость ветра, видимость, явления погоды, количество и форму облачности, нижнюю и верхнюю границу облачности).

Рекомендуем: в классическом стиле диваны интернет магазин

Погода в Починоке - сегодня

Время (UTC), дата Ветер
(°,м/с) 
Видим.   Явления Облачность Т
(°С)
Тd
(°С)
f(%) Тe
(°С)
Pmin
(гПа)
dP
(гПа)
Po
(мм)
O2
(г/м3)
Тmin Tmax R s Состояние
почвы
09 20.01.18 090 (В) 4000 м  слаб. снег  10/8 300 м средняя 
[Frnb|As op]
-5.2 -6 94 -7  1007.1  0.3  736  303           
12 20.01.18 070 (В) 4000 м  дымка{снег}  10/0 средняя 
[As op]
-4.4 -5.4 93 -6  1006.9  -0.2  736  302           
15 20.01.18 040 (СВ) 10 км    10/8 600 м средняя 
[Sc|As op]
-4.2 -5.7 89 -4  1007.4  0.5  736  302         
18 20.01.18 тихо ()   10 км    10/0 средняя 
[As op]
-4.6 -5.6 93 -5  1007.8  0.4  737  302    -4.2     
21 20.01.18 230 (ЮЗ) 10 км    10/0 средняя 
[Ac As]
-4.8 -5.5 95 -4  1008.3  0.4  737  303           
00 21.01.18 130 (ЮВ) 4000 м  дымка  10/0 средняя 
[Ac As]
-5.3 -5.7 97 -5  1008.5  0.1  737  303           
03 21.01.18 тихо ()   4000 м  слаб. снег  10/6 300 м средняя 
[Frnb|As op]
-6.4 -6.8 97 -6  1008.8  0.2  737  305  -6.4    0.0     
06 21.01.18 тихо ()   2000 м  слаб. снег  10/8 300 м средняя 
[Frnb|As op]
-6.4 -6.8 97 -6  1009.5  0.7  738  305  -6.6    0.2  12  неравномерный
сухой снег
100% 
09 21.01.18 290 (З) 4000 м  дымка{снег}  9/8 600 м средняя 
[Sc|Ac trans]
-5.1 -5.9 94 -5  1009.9  0.5  738  304           
12 21.01.18 290 (З) 4000 м  слаб. ливневой снег  10/8 600 м кучево-дожд., средняя 
[Cb cap|Ac und]
-4.2 -5.9 88 -4  1010.8  0.9  739  303           
15 21.01.18 280 (З) 4000 м  слаб. ливневой снег  10/8 300 м кучево-дожд., средняя 
[Cb cap|Ac und]
-5.2 -6.8 88 -7  1012.8  1.8  740  305      0.6     
18 21.01.18 310 (СЗ) 4000 м  слаб. ливневой снег  10/8 300 м кучево-дожд., средняя 
[Cb cap|Ac und]
-8.8 -9.6 94 -9  1014.3  1.2  741  309    -4  0.7     
21 21.01.18 300 (СЗ) 4000 м  дымка{ливн. осадки}  10/8 300 м кучево-дожд., средняя 
[Cb cap|Ac und]
-9.3 -9.9 95 -9  1015.7  1.3  742  311           
00 22.01.18 240 (ЮЗ) 4000 м  дымка{ливн. осадки}  9/8 600 м кучево-дожд., средняя 
[Cb cap|Ac trans]
-10.2 -10.9 95 -10  1017.1  1.3  743  312           
03 22.01.18 260 (З) 4000 м  дымка{ливн. осадки}  10/8 600 м кучево-дожд., средняя 
[Cb cap|Ac und]
-7.8 -8.5 95 -11  1017.5  0.6  743  309  -10.8    0.5     
06 22.01.18 260 (З) 4000 м  дымка{ливн. осадки}  10/8 600 м кучево-дожд., средняя 
[Cb cap|Ac und]
-8 -8.6 95 -11  1018.3  0.8  744  310  -10.8    0.2  13  неравномерный
сухой снег
100% 
09 22.01.18 230 (ЮЗ) 10 км    6/3 1000 м средняя, верхняя 
[Sc|Ac trans|Ci fib]
-8.4 -9.2 94 -10  1019.7  1.2  745  311           
12 22.01.18 250 (З) 20000 м  в посл. час ливневой снег  9/5 1000 м средняя 
[Sc|Ac trans]
-5.7 -8.5 81 -7  1020.2  0.8  746  308           
15 22.01.18 270 (З) 20000 м    4/0 средняя, верхняя 
[Ac trans|Ci fib]
-10.3 -11.8 89 -10  1022.2  1.5  747  314      0.0     
18 22.01.18 310 (СЗ) 10 км    10/3 1000 м средняя 
[Sc|Ac trans]
-8.9 -9.7 94 -9  1023.3  1.2  748  312    -5.5  0.0     
21 22.01.18 310 (СЗ) 4000 м  дымка  10/4 1000 м средняя 
[Sc|Ac trans]
-8.6 -9.2 95 -8  1024.1  0.9  748  312           
00 23.01.18 280 (З) 4000 м  дымка  10/0 средняя 
[Ac trans]
-9 -9.7 95 -9  1025.3  1.1  749  313           
03 23.01.18 200 (Ю) 4000 м  дымка  10/0 средняя 
[Ac trans]
-9.1 -9.8 95 -9  1026.1  0.8  750  313  -13.2         
06 23.01.18 260 (З) 2000 м  дымка [диам. изморози 2 мм]  10/10 600 м 
[Sc]
-9.7 -10.5 94 -10  1027.2  1.1  750  315  -9.8      12  неравномерный
сухой снег
100% 
09 23.01.18 220 (ЮЗ) 2000 м  дымка  10/10 600 м 
[Sc]
-10.6 -11.5 93 -14  1028.2  0.8  751  316           
Время (UTC), дата Ветер
(°,м/с) 
Видим.   Явления Облачность Т
(°С)
Тd
(°С)
f(%) Тe
(°С)
Pmin
(гПа)
dP
(гПа)
Po
(мм)
O2
(г/м3)
Тmin Tmax R s Состояние
почвы

Для получения пояснительной информации подведите курсор к названию столбца.

ПОГОДА в Починоке - архив

Всё, что Вы хотите узнать о погоде в Починоке - удобно и подробно!

Выберите нужную дату (начиная с 1 января 2015* года) и нажмите кнопку "Найти".
Будут отображены архивные сводки погоды по пункту Починок, начиная с указанной даты.


Отображать данные в формате CSV (для использования в таблицах Excel)


Внимание! Наш архив погоды предназначен исключительно для личного некоммерческого использования в познавательных целях. Если Вам необходимы официальные справки о состоянии погоды (для производственных, юридических, коммерческих и т.п. целей), обращайтесь в органы Росгидромета.

*Примечание: данная дата относится к архиву по метеостанциям СССР (Россия, СНГ, Балтия).
Архив по метеостанциям Зарубежной Европы и Азии (кроме Китая) хранится 10 дней, по другим регионам земного шара (Китай, Африка, Америка, Австралия, Океания) - 1 день.

Починок - район местоположения метеостанции


Название, широта, долгота, высота метеостанции:
Починок 54.4°ш. 32.4°д. 210 м над ур. моря [Российская Федерация]

Дополнительная информация

В oтличие oт бoльшинства пoгoдных сайтoв мы публикуем пoдрoбную метеoинфoрмацию в детальнoм прoфессиoнальнoм фoрмате.

Характеристики температуры и влажнoсти вoздуха измеряются на высoте 2 м в тени вдали oт зданий и деревьев.
Скoрoсть ветра измеряется на высoте 10 м (на урoвне рoста челoвека скoрoсть ветра ниже в 1.5-2 раза). Если метеoстанция нахoдится в гoрoде или в лесу, тo скoрoсть ветра занижена на 2-4 м/с пo сравнению с oткрытым местoм. Скoрoсть ветра над акватoриями крупных рек и oзёр, а также на вершинах хoлмoв на 2-5 м/с выше, чем в oбычных услoвиях.
Атмoсфернoе давление в разных тoчках местнoсти мoжет значительнo oтличаться oт давления на метеoстанции, в зависимoсти oт услoвий рельефа (при пoдъёме на 10 м давление пoнижается примернo на 1 мм рт.ст.).